Location: A�t �Alizem
(31.2076°N, 8.7872°W)
Time: 04:44:04
(UTC+00:00)

SL-14 DEB - Visible Passes

Search period start: 15 June 2021 00:00
Search period end: 25 June 2021 00:00
Orbit: 900 x 996 km, 82.5° (Epoch: 14 June)

Date Brightness Start Highest point End Pass type
(mag) Time Alt. Az. Time Alt. Az. Time Alt. Az.
15 Jun ? 01:22:17 16° E 01:23:04 17° E 01:26:49 10° NE visible
15 Jun ? 03:06:23 51° WSW 03:07:20 56° W 03:13:28 10° N visible
16 Jun ? 01:39:38 28° E 01:40:01 28° E 01:45:12 10° NNE visible
16 Jun ? 03:23:43 32° W 03:24:39 34° WNW 03:30:15 10° NNW visible
17 Jun ? 01:56:57 46° E 01:57:04 46° E 02:02:59 10° NNE visible
17 Jun ? 03:41:02 20° W 03:42:03 21° WNW 03:46:36 10° NNW visible
18 Jun ? 02:14:14 77° E 02:14:14 77° E 02:20:24 10° N visible
18 Jun ? 03:58:20 11° W 03:59:34 12° WNW 04:01:46 10° NW visible
19 Jun ? 00:47:26 14° E 00:47:26 14° E 00:50:11 10° NE visible
19 Jun ? 02:31:31 65° WNW 02:31:31 65° WNW 02:37:34 10° N visible
20 Jun ? 01:04:41 24° E 01:04:41 24° E 01:08:56 10° NE visible
20 Jun ? 02:48:47 39° WNW 02:48:47 39° WNW 02:54:26 10° NNW visible
21 Jun ? 01:21:56 38° ENE 01:21:56 38° ENE 01:26:51 10° NNE visible
21 Jun ? 03:06:01 24° WNW 03:06:03 24° WNW 03:10:56 10° NNW visible
22 Jun ? 01:39:10 59° NE 01:39:10 59° NE 01:44:23 10° NNE visible
22 Jun ? 03:23:15 14° WNW 03:23:31 14° WNW 03:26:38 10° NW visible
23 Jun ? 00:12:17 11° ENE 00:12:17 11° ENE 00:13:07 10° ENE visible
23 Jun ? 01:56:22 64° NNW 01:56:22 64° NNW 02:01:37 10° N visible
24 Jun ? 00:29:29 19° ENE 00:29:29 19° ENE 00:32:35 10° NE visible
24 Jun ? 02:13:34 43° WNW 02:13:34 43° WNW 02:18:34 10° N visible
